Weather History for KMAO - June, 2013

Change the Weather History Date:

Wednesday, June 26, 2013

  Actual Average (KFLO) Record (KFLO)
Temperature  
Mean Temperature 78 °F 80 °F  
Max Temperature 87 °F 90 °F 103 °F (1952)
Min Temperature 69 °F 70 °F 56 °F (1979)
Degree Days  
Heating Degree Days 0 0  
Month to date heating degree days 0  
Since 1 June heating degree days 0  
Since 1 July heating degree days 2523  
Cooling Degree Days 13 15  
Month to date cooling degree days 336  
Year to date cooling degree days 643  
Since 1 June cooling degree days 336  
Growing Degree Days 28 (Base 50)    
Moisture  
Dew Point 72 °F    
Average Humidity 82    
Maximum Humidity 100    
Minimum Humidity 55    
Precipitation  
Precipitation 0.52 in 0.15 in 2.67 in (1961)
Month to date precipitation 4.01  
Year to date precipitation 19.37  
Sea Level Pressure  
Sea Level Pressure 30.02 in    
Wind  
Wind Speed 4 mph (SSW)    
Max Wind Speed 13 mph    
Max Gust Speed 33 mph    
Visibility 10 miles    
Events Rain , Thunderstorm    
T = Trace of Precipitation, MM = Missing Value Source: NWS Daily Summary

Daily Weather History Graph

Daily Weather History Graph

Search for Another Location

Airport or City:

Trip Planner

Search our weather history database for the weather conditions in past years. The results will help you decide how hot, cold, wet, or windy it might be!

Date:

Astronomy

Jun. 26, 2013 Rise Set
Actual Time 6:07 AM EDT 8:33 PM EDT
Civil Twilight 5:38 AM EDT 9:02 PM EDT
Nautical Twilight 5:02 AM EDT 9:38 PM EDT
Astronomical Twilight 4:22 AM EDT 10:17 PM EDT
Moon 11:07 PM EDT (6/26) 9:46 AM EDT (6/26)
Length of Visible Light 15h 24m
Length of Day
14h 25m
Waning Gibbous, 85% of the Moon is Illuminated
Jun 26
Waning Gibbous
Jun 30
Last Quarter
Jul 8
New
Jul 15
First Quarter
Jul 22
Full

Hourly Weather History & Observations

Time (EDT) Temp. Heat Index Dew Point Humidity Pressure Visibility Wind Dir Wind Speed Gust Speed Precip Events Conditions
12:15 AM 71.6 °F - 71.6 °F 100% 30.05 in 10.0 mi South 3.5 mph - N/A   Clear
12:35 AM 71.6 °F - 71.6 °F 100% 30.05 in 10.0 mi Calm Calm - N/A   Clear
12:55 AM 71.6 °F - 71.6 °F 100% 30.05 in 10.0 mi Calm Calm - N/A   Clear
1:15 AM 69.8 °F - 69.8 °F 100% 30.06 in 10.0 mi Calm Calm - N/A   Clear
1:35 AM 69.8 °F - 69.8 °F 100% 30.06 in 10.0 mi Calm Calm - N/A   Clear
1:55 AM - - - N/A% 30.06 in 10.0 mi Calm Calm - N/A   Scattered Clouds
2:15 AM - - - N/A% 30.05 in 10.0 mi Calm Calm - N/A   Mostly Cloudy
2:35 AM - - - N/A% 30.04 in 10.0 mi Calm Calm - N/A   Mostly Cloudy
2:55 AM - - - N/A% 30.04 in 10.0 mi Calm Calm - N/A   Scattered Clouds
3:15 AM - - - N/A% 30.04 in 7.0 mi Calm Calm - N/A   Clear
3:35 AM - - - N/A% 30.03 in 7.0 mi South 4.6 mph - N/A   Clear
3:55 AM - - - N/A% 30.03 in 7.0 mi South 5.8 mph - N/A   Clear
4:15 AM - - - N/A% 30.04 in 7.0 mi South 5.8 mph - N/A   Clear
4:35 AM - - - N/A% 30.04 in 10.0 mi South 5.8 mph - N/A   Mostly Cloudy
4:55 AM - - - N/A% 30.04 in 10.0 mi SSW 5.8 mph - N/A   Scattered Clouds
5:15 AM - - - N/A% 30.04 in 10.0 mi SSW 4.6 mph - N/A   Scattered Clouds
5:35 AM - - - N/A% 30.05 in 10.0 mi South 3.5 mph - N/A   Clear
5:55 AM - - - N/A% 30.05 in 10.0 mi South 4.6 mph - N/A   Clear
6:15 AM 71.6 °F - 71.6 °F 100% 30.05 in 10.0 mi South 4.6 mph - N/A   Clear
6:35 AM 71.6 °F - 71.6 °F 100% 30.06 in 10.0 mi South 5.8 mph - N/A   Clear
6:55 AM 71.6 °F - 71.6 °F 100% 30.06 in 10.0 mi SSW 3.5 mph - N/A   Clear
7:15 AM 71.6 °F - 71.6 °F 100% 30.06 in 10.0 mi South 4.6 mph - N/A   Clear
7:35 AM 73.4 °F - 73.4 °F 100% 30.06 in 10.0 mi South 4.6 mph - N/A   Clear
7:55 AM 73.4 °F - 73.4 °F 100% 30.06 in 10.0 mi SSW 4.6 mph - N/A   Clear
8:15 AM 73.4 °F - 71.6 °F 94% 30.07 in 10.0 mi SW 6.9 mph - N/A   Clear
8:35 AM 73.4 °F - 71.6 °F 94% 30.07 in 10.0 mi SW 5.8 mph - N/A   Clear
8:55 AM 73.4 °F - 71.6 °F 94% 30.07 in 10.0 mi SW 6.9 mph - N/A   Clear
9:15 AM 77.0 °F - 73.4 °F 89% 30.06 in 10.0 mi SW 4.6 mph - N/A   Clear
9:35 AM 78.8 °F - 71.6 °F 78% 30.06 in 10.0 mi SW 6.9 mph - N/A   Clear
9:55 AM 78.8 °F - 71.6 °F 78% 30.05 in 10.0 mi WSW 11.5 mph - N/A   Clear
10:15 AM 80.6 °F 84.6 °F 71.6 °F 74% 30.05 in 10.0 mi SW 9.2 mph - N/A   Clear
10:55 AM 82.4 °F 87.2 °F 71.6 °F 70% 30.04 in 10.0 mi SW 8.1 mph - N/A   Clear
11:15 AM 82.4 °F 87.2 °F 71.6 °F 70% 30.04 in 10.0 mi SW 6.9 mph - N/A   Clear
11:35 AM 82.4 °F 87.2 °F 71.6 °F 70% 30.03 in 10.0 mi SW 8.1 mph - N/A   Clear
12:15 PM 86.0 °F 91.8 °F 71.6 °F 62% 30.03 in 10.0 mi SSW 11.5 mph 17.3 mph N/A   Mostly Cloudy
12:35 PM 86.0 °F 93.4 °F 73.4 °F 66% 30.03 in 10.0 mi WSW 9.2 mph - N/A   Mostly Cloudy
12:55 PM 86.0 °F 93.4 °F 73.4 °F 66% 30.03 in 10.0 mi WSW 10.4 mph 16.1 mph N/A   Mostly Cloudy
1:15 PM 86.0 °F 91.8 °F 71.6 °F 62% 30.02 in 10.0 mi WSW 10.4 mph 18.4 mph N/A Thunderstorm Scattered Clouds
1:35 PM 86.0 °F 91.8 °F 71.6 °F 62% 30.02 in 10.0 mi SW 10.4 mph - N/A Thunderstorm Thunderstorm
2:15 PM 78.8 °F - 75.2 °F 89% 30.01 in 10.0 mi South 6.9 mph - N/A Thunderstorm Thunderstorm
2:55 PM 77.0 °F - 73.4 °F 89% 29.99 in 10.0 mi South 8.1 mph - N/A   Clear
3:35 PM 82.4 °F 89.5 °F 75.2 °F 79% 29.97 in 10.0 mi SSE 5.8 mph - N/A   Clear
3:55 PM 87.8 °F 95.6 °F 73.4 °F 62% 29.97 in 10.0 mi SSW 5.8 mph - N/A   Scattered Clouds
4:15 PM 87.8 °F 93.8 °F 71.6 °F 58% 29.96 in 10.0 mi SSW 4.6 mph - N/A Thunderstorm Scattered Clouds
4:35 PM 86.0 °F 93.4 °F 73.4 °F 66% 29.95 in 10.0 mi South 11.5 mph 16.1 mph N/A   Mostly Cloudy
4:55 PM 87.8 °F 92.6 °F 69.8 °F 55% 29.95 in 10.0 mi South 12.7 mph 16.1 mph N/A   Scattered Clouds
5:35 PM 87.8 °F 92.6 °F 69.8 °F 55% 29.95 in 10.0 mi SSW 8.1 mph - N/A   Clear
5:55 PM 87.8 °F 93.8 °F 71.6 °F 58% 29.95 in 10.0 mi SW 5.8 mph - N/A   Scattered Clouds
6:35 PM 87.8 °F 93.8 °F 71.6 °F 58% 29.95 in 10.0 mi South 8.1 mph - N/A   Scattered Clouds
6:55 PM 86.0 °F 91.8 °F 71.6 °F 62% 29.95 in 10.0 mi South 10.4 mph - N/A   Scattered Clouds
7:15 PM 84.2 °F 90.9 °F 73.4 °F 70% 29.94 in 10.0 mi SSE 9.2 mph - N/A   Scattered Clouds
7:35 PM 82.4 °F 88.2 °F 73.4 °F 74% 29.96 in 10.0 mi South 9.2 mph - N/A   Mostly Cloudy
7:55 PM 82.4 °F 88.2 °F 73.4 °F 74% 29.96 in 10.0 mi South 8.1 mph - N/A   Mostly Cloudy
8:15 PM 80.6 °F 85.4 °F 73.4 °F 79% 29.97 in 10.0 mi South 5.8 mph - N/A   Scattered Clouds
8:35 PM 80.6 °F 85.4 °F 73.4 °F 79% 29.97 in 10.0 mi South 5.8 mph - N/A   Clear
8:55 PM 78.8 °F - 75.2 °F 89% 29.96 in 10.0 mi SSE 5.8 mph - N/A   Scattered Clouds
9:15 PM 78.8 °F - 75.2 °F 89% 29.97 in 10.0 mi South 8.1 mph - N/A Thunderstorm Scattered Clouds
9:35 PM 77.0 °F - 71.6 °F 83% 30.00 in 3.0 mi SW 10.4 mph 33.4 mph 0.15 in Rain , Thunderstorm Heavy Thunderstorms and Rain
9:55 PM 73.4 °F - 69.8 °F 88% 30.00 in 7.0 mi East 4.6 mph - 0.37 in Rain , Thunderstorm Light Thunderstorms and Rain
10:15 PM 71.6 °F - 71.6 °F 100% 30.02 in 10.0 mi NNE 11.5 mph 27.6 mph 0.01 in Rain , Thunderstorm Light Thunderstorms and Rain
10:35 PM 69.8 °F - 68.0 °F 94% 30.03 in 10.0 mi East 3.5 mph 9.2 mph 0.01 in Thunderstorm Unknown
10:55 PM 69.8 °F - 69.8 °F 100% 30.02 in 4.0 mi Calm Calm - 0.09 in Rain , Thunderstorm Heavy Thunderstorms and Rain
11:15 PM 69.8 °F - 69.8 °F 100% 30.02 in 7.0 mi East 3.5 mph - 0.06 in Rain Light Rain
11:35 PM 69.8 °F - 69.8 °F 100% 30.01 in 10.0 mi SE 4.6 mph - 0.06 in   Scattered Clouds
11:55 PM 69.8 °F - 69.8 °F 100% 30.00 in 10.0 mi Calm Calm - 0.06 in   Clear